STARLINK-32855 (62813 NORAD) Tracking and Keplerian Element Data

This shows tracking and keplerian element data for the satellite.

Feedback or suggestion? Click here.




ElementValue
Catalog62813
NameSTARLINK-32855
Epoch Orbit292
Epoch Day35.25001157
Epoch Year2025
RAAN11.5081
Inclination53.1472
Eccentricity9.6E-05
Argument of Perigee77.8937
Mean Anonmoly95.4426
Mean Motion15.85796285
Decay Rate-0.00998644
L11 62813U 25018H 25035.25001157 -.00998644 00000+0 -44849-2 0 9994
L22 62813 53.1472 11.5081 0000960 77.8937 95.4426 15.85796285 2925



Live tracking and technical data element details for STARLINK-32855 (NORAD 62813). STARLINK-32855 can be tracked NOW for your location showing map with azimuth and elevation plus other details from your city location.







IsCatalogInMostPopularTable: catalog: 62813, numindb: 184
Update: records affected: 1



GetName: 62813 STARLINK-32855

Hit Count: updated at: Mon, 17 Nov 2025 18:39:10 GMT